Time,TemperatureF,DewpointF,PressureIn,WindDirection,WindDirectionDegrees,WindSpeedMPH,WindSpeedGustMPH,Humidity,HourlyPrecipIn,Conditions,Clouds,dailyrainin,SoftwareType,DateUTC
2013-01-28 00:10:00,10.9,1.4,30.26,East,96,1.0,5.0,65,0.00,,,0.00,Wunderground v.1.15,2013-01-28 05:10:00,
2013-01-28 00:20:00,11.0,1.2,30.26,ESE,104,2.0,3.0,64,0.00,,,0.00,Wunderground v.1.15,2013-01-28 05:20:00,
2013-01-28 00:30:00,10.9,1.4,30.26,NE,50,1.0,1.0,65,0.00,,,0.00,Wunderground v.1.15,2013-01-28 05:30:00,
2013-01-28 00:40:00,10.6,1.1,30.27,ENE,68,0.0,0.0,65,0.00,,,0.00,Wunderground v.1.15,2013-01-28 05:40:00,
2013-01-28 00:50:00,10.0,1.2,30.28,ENE,68,0.0,0.0,67,0.00,,,0.00,Wunderground v.1.15,2013-01-28 05:50:00,
2013-01-28 01:00:00,9.5,1.4,30.29,ENE,69,0.0,0.0,69,0.00,,,0.00,Wunderground v.1.15,2013-01-28 06:00:00,
2013-01-28 01:10:00,9.6,1.8,30.29,ENE,64,1.0,2.0,70,0.00,,,0.00,Wunderground v.1.15,2013-01-28 06:10:00,
2013-01-28 01:20:00,10.2,1.4,30.28,ENE,61,2.0,2.0,67,0.00,,,0.00,Wunderground v.1.15,2013-01-28 06:20:00,
2013-01-28 01:30:00,10.6,1.8,30.29,ENE,70,2.0,2.0,67,0.00,,,0.00,Wunderground v.1.15,2013-01-28 06:30:00,
2013-01-28 01:40:00,11.0,1.9,30.29,East,91,2.0,2.0,66,0.00,,,0.00,Wunderground v.1.15,2013-01-28 06:40:00,
2013-01-28 01:50:00,11.3,1.8,30.28,East,80,2.0,2.0,65,0.00,,,0.00,Wunderground v.1.15,2013-01-28 06:50:00,
2013-01-28 02:00:00,11.7,1.9,30.28,East,89,1.0,3.0,64,0.00,,,0.00,Wunderground v.1.15,2013-01-28 07:00:00,
2013-01-28 02:10:00,11.9,2.0,30.28,East,83,1.0,1.0,64,0.00,,,0.00,Wunderground v.1.15,2013-01-28 07:10:00,
2013-01-28 02:20:00,12.1,1.9,30.27,ESE,103,2.0,2.0,63,0.00,,,0.00,Wunderground v.1.15,2013-01-28 07:20:00,
2013-01-28 02:30:00,12.3,1.7,30.28,ESE,108,2.0,2.0,62,0.00,,,0.00,Wunderground v.1.15,2013-01-28 07:30:00,
2013-01-28 02:40:00,12.3,1.7,30.28,ESE,115,2.0,2.0,62,0.00,,,0.00,Wunderground v.1.15,2013-01-28 07:40:00,
2013-01-28 02:50:00,12.2,2.0,30.26,ENE,60,2.0,2.0,63,0.00,,,0.00,Wunderground v.1.15,2013-01-28 07:50:00,
2013-01-28 03:00:00,12.2,1.7,30.25,ESE,122,2.0,2.0,62,0.00,,,0.00,Wunderground v.1.15,2013-01-28 08:00:00,
2013-01-28 03:10:00,12.3,1.7,30.26,ENE,70,1.0,1.0,62,0.00,,,0.00,Wunderground v.1.15,2013-01-28 08:10:00,
2013-01-28 03:20:00,12.3,2.1,30.26,ENE,66,1.0,3.0,63,0.00,,,0.00,Wunderground v.1.15,2013-01-28 08:20:00,
2013-01-28 03:30:00,12.3,1.7,30.26,NE,44,1.0,2.0,62,0.00,,,0.00,Wunderground v.1.15,2013-01-28 08:30:00,
2013-01-28 03:40:00,12.4,1.8,30.26,ENE,78,1.0,1.0,62,0.00,,,0.00,Wunderground v.1.15,2013-01-28 08:40:00,
2013-01-28 03:50:00,12.4,2.2,30.26,ESE,105,2.0,2.0,63,0.00,,,0.00,Wunderground v.1.15,2013-01-28 08:50:00,
2013-01-28 04:00:00,12.5,1.9,30.26,ENE,70,1.0,1.0,62,0.00,,,0.00,Wunderground v.1.15,2013-01-28 09:00:00,
2013-01-28 04:10:00,12.6,1.7,30.26,ENE,70,1.0,1.0,61,0.00,,,0.00,Wunderground v.1.15,2013-01-28 09:10:00,
2013-01-28 04:20:00,12.7,1.8,30.26,ENE,75,0.0,1.0,61,0.00,,,0.00,Wunderground v.1.15,2013-01-28 09:20:00,
2013-01-28 04:30:00,12.8,1.9,30.26,ENE,57,1.0,1.0,61,0.00,,,0.00,Wunderground v.1.15,2013-01-28 09:30:00,
2013-01-28 04:40:00,12.7,1.4,30.26,East,86,1.0,1.0,60,0.00,,,0.00,Wunderground v.1.15,2013-01-28 09:40:00,
2013-01-28 04:50:00,12.5,0.9,30.25,East,80,0.0,0.0,59,0.00,,,0.00,Wunderground v.1.15,2013-01-28 09:50:00,
2013-01-28 05:00:00,12.3,1.0,30.26,East,81,0.0,0.0,60,0.00,,,0.00,Wunderground v.1.15,2013-01-28 10:00:00,
2013-01-28 05:10:00,12.1,0.9,30.25,East,80,0.0,0.0,60,0.00,,,0.00,Wunderground v.1.15,2013-01-28 10:10:00,
2013-01-28 05:20:00,11.6,1.4,30.26,East,80,0.0,0.0,63,0.00,,,0.00,Wunderground v.1.15,2013-01-28 10:20:00,
2013-01-28 05:30:00,11.1,1.6,30.26,East,80,0.0,0.0,65,0.00,,,0.00,Wunderground v.1.15,2013-01-28 10:30:00,
2013-01-28 05:40:00,10.4,1.6,30.26,East,81,0.0,0.0,67,0.00,,,0.00,Wunderground v.1.15,2013-01-28 10:40:00,
2013-01-28 05:50:00,9.6,1.2,30.26,East,80,0.0,0.0,68,0.00,,,0.00,Wunderground v.1.15,2013-01-28 10:50:00,
2013-01-28 06:00:00,9.1,1.9,30.26,East,80,0.0,0.0,72,0.00,,,0.00,Wunderground v.1.15,2013-01-28 11:00:00,
2013-01-28 06:10:00,8.5,1.6,30.26,East,80,0.0,0.0,73,0.00,,,0.00,Wunderground v.1.15,2013-01-28 11:10:00,
2013-01-28 06:20:00,8.3,1.4,30.27,East,80,0.0,0.0,73,0.00,,,0.00,Wunderground v.1.15,2013-01-28 11:20:00,
2013-01-28 06:30:00,8.1,1.8,30.27,East,80,0.0,0.0,75,0.00,,,0.00,Wunderground v.1.15,2013-01-28 11:30:00,
2013-01-28 06:40:00,7.6,1.6,30.27,East,80,0.0,0.0,76,0.00,,,0.00,Wunderground v.1.15,2013-01-28 11:40:00,
2013-01-28 06:50:00,7.1,1.4,30.27,East,80,0.0,0.0,77,0.00,,,0.00,Wunderground v.1.15,2013-01-28 11:50:00,
2013-01-28 07:00:00,7.0,1.3,30.27,East,80,0.0,0.0,77,0.00,,,0.00,Wunderground v.1.15,2013-01-28 12:00:00,
2013-01-28 07:10:00,7.0,1.6,30.27,East,81,0.0,0.0,78,0.00,,,0.00,Wunderground v.1.15,2013-01-28 12:10:00,
2013-01-28 07:20:00,7.1,2.0,30.27,East,80,0.0,0.0,79,0.00,,,0.00,Wunderground v.1.15,2013-01-28 12:20:00,
2013-01-28 07:30:00,7.3,2.4,30.27,East,81,0.0,0.0,80,0.00,,,0.00,Wunderground v.1.15,2013-01-28 12:30:00,
2013-01-28 07:40:00,7.5,2.9,30.27,East,81,0.0,0.0,81,0.00,,,0.00,Wunderground v.1.15,2013-01-28 12:40:00,
2013-01-28 07:50:00,8.4,3.8,30.27,East,81,0.0,0.0,81,0.00,,,0.00,Wunderground v.1.15,2013-01-28 12:50:00,
2013-01-28 08:00:00,9.7,4.2,30.27,East,80,0.0,0.0,78,0.00,,,0.00,Wunderground v.1.15,2013-01-28 13:00:00,
2013-01-28 08:10:00,11.1,3.8,30.27,East,80,0.0,0.0,72,0.00,,,0.00,Wunderground v.1.15,2013-01-28 13:10:00,
2013-01-28 08:20:00,12.5,1.6,30.27,East,80,0.0,0.0,61,0.00,,,0.00,Wunderground v.1.15,2013-01-28 13:20:00,
2013-01-28 08:30:00,13.9,2.6,30.27,East,81,0.0,0.0,60,0.00,,,0.00,Wunderground v.1.15,2013-01-28 13:30:00,
2013-01-28 08:40:00,14.9,1.6,30.26,ENE,72,0.0,0.0,55,0.00,,,0.00,Wunderground v.1.15,2013-01-28 13:40:00,
2013-01-28 08:50:00,15.1,1.4,30.26,ESE,104,1.0,1.0,54,0.00,,,0.00,Wunderground v.1.15,2013-01-28 13:50:00,
2013-01-28 09:00:00,15.8,2.1,30.25,East,93,0.0,0.0,54,0.00,,,0.00,Wunderground v.1.15,2013-01-28 14:00:00,
2013-01-28 09:10:00,16.7,1.3,30.25,ESE,115,1.0,1.0,50,0.00,,,0.00,Wunderground v.1.15,2013-01-28 14:10:00,
2013-01-28 09:20:00,17.0,1.1,30.25,NE,56,1.0,1.0,49,0.00,,,0.00,Wunderground v.1.15,2013-01-28 14:20:00,
2013-01-28 09:30:00,17.9,2.4,30.25,North,354,0.0,1.0,50,0.00,,,0.00,Wunderground v.1.15,2013-01-28 14:30:00,
2013-01-28 09:40:00,18.4,2.0,30.25,NNE,31,1.0,1.0,48,0.00,,,0.00,Wunderground v.1.15,2013-01-28 14:40:00,
2013-01-28 09:50:00,19.0,2.1,30.25,NE,44,0.0,0.0,47,0.00,,,0.00,Wunderground v.1.15,2013-01-28 14:50:00,
2013-01-28 10:00:00,19.4,1.0,30.25,NNE,26,0.0,0.0,44,0.00,,,0.00,Wunderground v.1.15,2013-01-28 15:00:00,
2013-01-28 10:10:00,20.3,-0.8,30.25,South,187,1.0,1.0,39,0.00,,,0.00,Wunderground v.1.15,2013-01-28 15:10:00,
2013-01-28 10:20:00,20.8,-0.3,30.24,East,96,1.0,2.0,39,0.00,,,0.00,Wunderground v.1.15,2013-01-28 15:20:00,
2013-01-28 10:30:00,21.5,-0.8,30.25,East,92,1.0,2.0,37,0.00,,,0.00,Wunderground v.1.15,2013-01-28 15:30:00,
2013-01-28 10:40:00,22.0,-1.5,30.24,East,86,1.0,1.0,35,0.00,,,0.00,Wunderground v.1.15,2013-01-28 15:40:00,
2013-01-28 10:50:00,22.2,-1.3,30.23,North,351,1.0,1.0,35,0.00,,,0.00,Wunderground v.1.15,2013-01-28 15:50:00,
2013-01-28 11:00:00,22.5,-0.5,30.23,NE,50,1.0,1.0,36,0.00,,,0.00,Wunderground v.1.15,2013-01-28 16:00:00,
2013-01-28 11:10:00,23.0,-0.6,30.22,ESE,110,1.0,2.0,35,0.00,,,0.00,Wunderground v.1.15,2013-01-28 16:10:00,
2013-01-28 11:20:00,23.6,-0.1,30.22,SE,139,1.0,1.0,35,0.00,,,0.00,Wunderground v.1.15,2013-01-28 16:20:00,
2013-01-28 11:30:00,24.3,0.5,30.21,ENE,64,1.0,1.0,35,0.00,,,0.00,Wunderground v.1.15,2013-01-28 16:30:00,
2013-01-28 11:40:00,25.0,1.2,30.20,ESE,105,0.0,1.0,35,0.00,,,0.00,Wunderground v.1.15,2013-01-28 16:40:00,
2013-01-28 11:50:00,25.5,0.3,30.20,NE,53,0.0,1.0,33,0.00,,,0.00,Wunderground v.1.15,2013-01-28 16:50:00,
2013-01-28 12:00:00,26.7,1.4,30.19,NNE,25,1.0,1.0,33,0.00,,,0.00,Wunderground v.1.15,2013-01-28 17:00:00,
2013-01-28 12:10:00,27.2,-0.2,30.18,WNW,284,1.0,2.0,30,0.00,,,0.00,Wunderground v.1.15,2013-01-28 17:10:00,
2013-01-28 12:20:00,27.5,0.8,30.18,ENE,67,1.0,1.0,31,0.00,,,0.00,Wunderground v.1.15,2013-01-28 17:20:00,
2013-01-28 12:30:00,28.1,-0.1,30.17,North,352,1.0,1.0,29,0.00,,,0.00,Wunderground v.1.15,2013-01-28 17:30:00,
2013-01-28 12:40:00,27.7,-1.2,30.16,ENE,77,1.0,1.0,28,0.00,,,0.00,Wunderground v.1.15,2013-01-28 17:40:00,
2013-01-28 12:50:00,27.6,-0.6,30.15,ENE,70,0.0,1.0,29,0.00,,,0.00,Wunderground v.1.15,2013-01-28 17:50:00,
2013-01-28 13:00:00,28.1,1.3,30.15,NNW,347,1.0,1.0,31,0.00,,,0.00,Wunderground v.1.15,2013-01-28 18:00:00,
2013-01-28 13:10:00,28.1,2.6,30.14,NNW,346,1.0,1.0,33,0.00,,,0.00,Wunderground v.1.15,2013-01-28 18:10:00,
2013-01-28 13:20:00,28.4,1.6,30.14,NNW,340,0.0,0.0,31,0.00,,,0.00,Wunderground v.1.15,2013-01-28 18:20:00,
2013-01-28 13:30:00,28.3,4.7,30.13,NNW,340,1.0,1.0,36,0.00,,,0.00,Wunderground v.1.15,2013-01-28 18:30:00,
2013-01-28 13:40:00,28.4,3.6,30.12,NNW,348,1.0,1.0,34,0.00,,,0.00,Wunderground v.1.15,2013-01-28 18:40:00,
2013-01-28 13:50:00,28.5,3.0,30.11,NNW,333,1.0,1.0,33,0.00,,,0.00,Wunderground v.1.15,2013-01-28 18:50:00,
2013-01-28 14:00:00,28.5,2.3,30.11,North,349,1.0,1.0,32,0.00,,,0.00,Wunderground v.1.15,2013-01-28 19:00:00,
2013-01-28 14:10:00,28.6,3.1,30.10,NNW,347,1.0,1.0,33,0.00,,,0.00,Wunderground v.1.15,2013-01-28 19:10:00,
2013-01-28 14:20:00,28.7,4.5,30.10,NNW,345,1.0,1.0,35,0.00,,,0.00,Wunderground v.1.15,2013-01-28 19:20:00,
2013-01-28 14:30:00,28.8,5.8,30.10,North,360,0.0,0.0,37,0.00,,,0.00,Wunderground v.1.15,2013-01-28 19:30:00,
2013-01-28 14:40:00,28.7,5.1,30.09,NNW,337,0.0,0.0,36,0.00,,,0.00,Wunderground v.1.15,2013-01-28 19:40:00,
2013-01-28 14:50:00,28.6,7.3,30.09,NNW,340,0.0,0.0,40,0.00,,,0.00,Wunderground v.1.15,2013-01-28 19:50:00,
2013-01-28 15:00:00,28.4,7.1,30.09,North,349,0.0,0.0,40,0.00,,,0.00,Wunderground v.1.15,2013-01-28 20:00:00,
2013-01-28 15:10:00,28.2,8.5,30.09,North,349,0.0,0.0,43,0.00,,,0.00,Wunderground v.1.15,2013-01-28 20:10:00,
2013-01-28 15:20:00,28.1,8.4,30.09,NNW,348,0.0,1.0,43,0.00,,,0.00,Wunderground v.1.15,2013-01-28 20:20:00,
2013-01-28 15:30:00,27.9,9.8,30.09,NNW,347,0.0,0.0,46,0.00,,,0.00,Wunderground v.1.15,2013-01-28 20:30:00,
2013-01-28 15:40:00,27.7,9.1,30.09,NNW,347,0.0,1.0,45,0.00,,,0.00,Wunderground v.1.15,2013-01-28 20:40:00,
2013-01-28 15:50:00,27.4,9.8,30.09,North,354,0.0,2.0,47,0.00,,,0.00,Wunderground v.1.15,2013-01-28 20:50:00,
2013-01-28 16:00:00,27.2,10.5,30.08,North,9,0.0,0.0,49,0.00,,,0.00,Wunderground v.1.15,2013-01-28 21:00:00,
2013-01-28 16:10:00,27.1,10.4,30.07,North,8,0.0,0.0,49,0.00,,,0.00,Wunderground v.1.15,2013-01-28 21:10:00,
2013-01-28 16:20:00,26.9,10.7,30.07,North,9,0.0,0.0,50,0.00,,,0.00,Wunderground v.1.15,2013-01-28 21:20:00,
2013-01-28 16:30:00,26.8,11.1,30.06,North,9,0.0,0.0,51,0.00,,,0.00,Wunderground v.1.15,2013-01-28 21:30:00,
2013-01-28 16:40:00,26.7,11.4,30.06,North,8,0.0,0.0,52,0.00,,,0.00,Wunderground v.1.15,2013-01-28 21:40:00,
2013-01-28 16:50:00,26.6,11.3,30.06,North,9,0.0,0.0,52,0.00,,,0.00,Wunderground v.1.15,2013-01-28 21:50:00,
2013-01-28 17:00:00,26.5,11.7,30.06,North,8,0.0,0.0,53,0.00,,,0.00,Wunderground v.1.15,2013-01-28 22:00:00,
2013-01-28 17:10:00,26.4,14.0,30.06,North,349,0.0,0.0,59,0.00,,,0.00,Wunderground v.1.15,2013-01-28 22:10:00,
2013-01-28 17:20:00,26.2,15.3,30.06,NNW,342,0.0,0.0,63,0.00,,,0.00,Wunderground v.1.15,2013-01-28 22:20:00,
2013-01-28 17:30:00,25.8,17.0,30.06,NNE,31,0.0,0.0,69,0.00,,,0.00,Wunderground v.1.15,2013-01-28 22:30:00,
2013-01-28 17:40:00,25.2,18.7,30.06,NNE,19,0.0,0.0,76,0.00,,,0.00,Wunderground v.1.15,2013-01-28 22:40:00,
2013-01-28 17:50:00,24.6,19.6,30.06,NNE,19,0.0,0.0,81,0.00,,,0.00,Wunderground v.1.15,2013-01-28 22:50:00,
2013-01-28 18:00:00,23.7,19.6,30.06,NE,50,0.0,0.0,84,0.00,,,0.00,Wunderground v.1.15,2013-01-28 23:00:00,
2013-01-28 18:10:00,23.1,19.5,30.05,East,79,1.0,1.0,86,0.00,,,0.00,Wunderground v.1.15,2013-01-28 23:10:00,
2013-01-28 18:20:00,22.8,19.5,30.04,East,81,0.0,0.0,87,0.00,,,0.00,Wunderground v.1.15,2013-01-28 23:20:00,
2013-01-28 18:30:00,22.6,19.6,30.04,East,81,0.0,1.0,88,0.00,,,0.00,Wunderground v.1.15,2013-01-28 23:30:00,
2013-01-28 18:40:00,22.4,19.6,30.04,East,82,0.0,0.0,89,0.00,,,0.00,Wunderground v.1.15,2013-01-28 23:40:00,
2013-01-28 18:50:00,22.5,20.0,30.03,East,82,0.0,0.0,90,0.00,,,0.00,Wunderground v.1.15,2013-01-28 23:50:00,
2013-01-28 19:00:00,22.4,19.9,30.02,East,82,0.0,0.0,90,0.00,,,0.00,Wunderground v.1.15,2013-01-29 00:00:00,
2013-01-28 19:10:00,22.4,19.9,30.02,East,82,0.0,0.0,90,0.00,,,0.00,Wunderground v.1.15,2013-01-29 00:10:00,
2013-01-28 19:20:00,22.3,19.8,30.02,East,82,0.0,0.0,90,0.00,,,0.00,Wunderground v.1.15,2013-01-29 00:20:00,
2013-01-28 19:30:00,22.3,20.1,30.00,East,82,0.0,0.0,91,0.00,,,0.00,Wunderground v.1.15,2013-01-29 00:30:00,
2013-01-28 19:40:00,22.4,20.2,30.00,East,83,0.0,0.0,91,0.00,,,0.00,Wunderground v.1.15,2013-01-29 00:40:00,
2013-01-28 19:50:00,22.3,20.1,29.99,East,84,0.0,0.0,91,0.00,,,0.00,Wunderground v.1.15,2013-01-29 00:50:00,
2013-01-28 20:00:00,22.3,20.1,29.99,East,84,0.0,0.0,91,0.00,,,0.00,Wunderground v.1.15,2013-01-29 01:00:00,
2013-01-28 20:10:00,22.3,20.1,29.99,East,83,0.0,0.0,91,0.00,,,0.00,Wunderground v.1.15,2013-01-29 01:10:00,
2013-01-28 20:20:00,22.3,20.1,29.98,East,83,0.0,0.0,91,0.00,,,0.00,Wunderground v.1.15,2013-01-29 01:20:00,
2013-01-28 20:30:00,22.3,20.1,29.98,East,83,0.0,0.0,91,0.00,,,0.00,Wunderground v.1.15,2013-01-29 01:30:00,
2013-01-28 20:40:00,22.3,20.1,29.97,East,83,0.0,0.0,91,0.00,,,0.00,Wunderground v.1.15,2013-01-29 01:40:00,
2013-01-28 20:50:00,22.3,20.1,29.97,East,83,0.0,0.0,91,0.00,,,0.00,Wunderground v.1.15,2013-01-29 01:50:00,
2013-01-28 21:00:00,22.3,20.3,29.97,East,83,0.0,0.0,92,0.00,,,0.00,Wunderground v.1.15,2013-01-29 02:00:00,
2013-01-28 21:10:00,22.3,20.3,29.97,East,83,0.0,0.0,92,0.00,,,0.00,Wunderground v.1.15,2013-01-29 02:10:00,
2013-01-28 21:20:00,22.3,20.3,29.96,East,84,0.0,0.0,92,0.00,,,0.00,Wunderground v.1.15,2013-01-29 02:20:00,
2013-01-28 21:30:00,22.3,20.3,29.96,East,83,0.0,0.0,92,0.00,,,0.00,Wunderground v.1.15,2013-01-29 02:30:00,
2013-01-28 21:40:00,22.3,20.3,29.95,East,85,0.0,0.0,92,0.00,,,0.00,Wunderground v.1.15,2013-01-29 02:40:00,
2013-01-28 21:50:00,22.4,20.4,29.96,ESE,108,0.0,1.0,92,0.00,,,0.00,Wunderground v.1.15,2013-01-29 02:50:00,
2013-01-28 22:00:00,22.5,20.5,29.95,ESE,109,0.0,0.0,92,0.00,,,0.00,Wunderground v.1.15,2013-01-29 03:00:00,
2013-01-28 22:10:00,22.7,20.7,29.95,ESE,108,0.0,0.0,92,0.00,,,0.00,Wunderground v.1.15,2013-01-29 03:10:00,
2013-01-28 22:20:00,22.7,20.7,29.96,ESE,108,0.0,0.0,92,0.00,,,0.00,Wunderground v.1.15,2013-01-29 03:20:00,
2013-01-28 22:30:00,22.6,20.6,29.96,ESE,107,0.0,0.0,92,0.00,,,0.00,Wunderground v.1.15,2013-01-29 03:30:00,
2013-01-28 22:40:00,22.7,21.0,29.96,ESE,108,0.0,0.0,93,0.00,,,0.00,Wunderground v.1.15,2013-01-29 03:40:00,
2013-01-28 22:50:00,22.8,21.1,29.96,ESE,108,0.0,0.0,93,0.00,,,0.00,Wunderground v.1.15,2013-01-29 03:50:00,
2013-01-28 23:00:00,22.8,21.1,29.96,ESE,107,0.0,0.0,93,0.00,,,0.00,Wunderground v.1.15,2013-01-29 04:00:00,
2013-01-28 23:10:00,22.8,21.1,29.96,ESE,108,0.0,0.0,93,0.00,,,0.00,Wunderground v.1.15,2013-01-29 04:10:00,
2013-01-28 23:20:00,22.8,21.1,29.95,ESE,108,0.0,0.0,93,0.00,,,0.00,Wunderground v.1.15,2013-01-29 04:20:00,
2013-01-28 23:30:00,22.9,21.2,29.96,ESE,108,0.0,0.0,93,0.00,,,0.00,Wunderground v.1.15,2013-01-29 04:30:00,
2013-01-28 23:40:00,23.0,21.3,29.95,ESE,108,0.0,0.0,93,0.00,,,0.00,Wunderground v.1.15,2013-01-29 04:40:00,
2013-01-28 23:50:00,23.0,21.3,29.95,ESE,107,0.0,0.0,93,0.00,,,0.00,Wunderground v.1.15,2013-01-29 04:50:00,